Powrót do katalogu

ONEWEB-0170

AktywnyŁącznośćPO
NORAD 48067·PAYLOAD·🇬🇧 United Kingdom

Wystrzelony Mar 25, 2021 z Vostochny Cosmodrome

Loading…

Następne Przeloty (najbliższe 24 godziny)

TLE

ŚwieżeSource: CelesTrak SupGP

Epoka: Sep 15, 2026, 03:09 UTC

1 48067C 21025AB  26258.13140463  .00000396  00000+0  10865-2 0  2587
2 48067  87.8921 302.3306 0002281  85.5797 315.0968 13.13468174    14

Śledź ONEWEB-0170 w czasie rzeczywistym z AllMySat

Download on the App Store